CZ-6A DEB, 57578

Orbit data source: Space-Track

CZ-6A DEB, 57578 is space debris in SSO originally from a launch on Fri, 11 Nov 2022 UTC launched from the Taiyaun Space Center, China (TSC). Debris objects in space refer to the collection of defunct objects orbiting the Earth. Examples of debris include non-operational satellites, rocket bodies, and fragments generated from explosions, collisions, or faulty payload assembly.

Loading next visibility...
Identifier
57578, 2022-151AHV
Orbit
SSO
Country
Flag of CNCN / PRC
Related business
Manufacturer
SAST
Mission
Spacecraft
Bus & Motor
Unknown
Mass
Unknown
Launch date (UTC)
2022-11-11 (4 years ago)
Launch vehicle
Unknown
Launch site
Taiyaun Space Center, China (TSC)
Object type
Payload
Rocket body
Debris
Shape & HBR
Unknown shape, 0.1 m
Radar Cross Section
Small (<0.1 m²)

Expand to show TLE details & history
Last TLE update: 2 days ago

TLE from 2 days ago
0 CZ-6A DEB
1 57578U 22151AHV 26234.37835749  .00001140  00000-0  43139-3 0  9995
2 57578  98.8466 287.9490 0046513 147.5116 212.8945 14.32613819173604
Epoch: 2026-08-22T09:04Z
TLE epoch observation values (Epoch: 2026-08-22T09:04:50.087Z)
Latitude
Longitude
-178.94932°
Altitude
813.954 km
Speed
7.432 km/s
True Right ascension
19h 11m 47s
True Declination
0° 00' 00"
Sunlit
Object was in full shadow at epoch
Visualization orbit readout
Latitude
Unknown
Longitude
Unknown
Altitude
Unknown
Speed
Unknown
Apparent Right ascension
Unknown
Apparent Declination
Unknown
Sunlit
N/A
Visualization observer readout
Local Sidereal Time
16:03:01
Azimuth
Unknown
Elevation
Unknown
Doppler factor
Unknown
Orbital elements
Apogee altitude
813.451 km
Perigee altitude
746.86 km
Semi-major axis
7,158.292 km
Eccentricity
0.00465
Inclination
98.8466°
RAAN
287.949°
Arg. of periapsis
147.5116°
True anomaly
212.60644°
Mean anomaly
212.8945°
Eccentric anomaly
212.75033°
Mean motion
3.58368 °/min
Orbital period
100.46 mins
BSTAR
0.00043139
Loading maneuver chart data...
Computing Atmospheric mass density...
Loading historical data...
Loading historical data...
Loading historical data...
Loading historical data...
Loading historical data...
Loading historical data...
Loading historical data...

Documentation

Showing up to 5 results
|